Date String (YYYY-MM-DD hh:mm:ss) UTC,Instrument flags,Ambient pressure (hPa),Sample flow (lpm),Bypass flow (lpm),Sample temperature (°C),Ambient temperature (°C),ASC tube jacket temperature (°C),LED temperature (°C),Box temperature (°C),Sample RH (%),Mass concentration (μg/m³),Mass concentration (μg/m³)
DateTimeUTC,F1_M11,P_M11,Q1_M11,Q2_M11,T1_M11,T2_M11,T3_M11,T4_M11,T5_M11,U1_M11,X0_M11,X2_M11
2021-08-13 10:00:00,,0833.7,5.00,0.00,29.9,28.1,00.0,38.9,31.5,28.0,0028.79,0009.08
2021-08-13 10:01:00,,0833.7,5.01,0.00,29.7,26.4,00.0,38.9,31.1,28.2,0028.24,0008.83
2021-08-13 10:02:00,,0833.7,5.01,0.00,29.5,26.2,00.0,38.8,31.0,28.4,0026.71,0008.69
2021-08-13 10:03:00,,0833.6,5.00,0.00,29.4,26.6,00.0,38.8,31.1,28.7,0026.05,0008.60
2021-08-13 10:04:00,,0833.7,5.00,0.00,29.3,27.0,00.0,38.7,31.2,28.8,0024.59,0008.55
2021-08-13 10:05:00,,0833.6,5.01,0.00,29.3,27.3,00.0,38.7,31.2,28.8,0023.77,0008.58
2021-08-13 10:06:00,,0833.6,4.99,0.00,29.3,27.6,00.0,38.7,31.3,28.8,0024.71,0008.56
2021-08-13 10:07:00,,0833.6,5.00,0.00,29.4,27.9,00.0,38.7,31.3,28.8,0024.13,0008.41
2021-08-13 10:08:00,,0833.6,4.99,0.00,29.4,28.1,00.0,38.6,31.4,28.7,0023.75,0008.39
2021-08-13 10:09:00,,0833.6,5.01,0.00,29.4,28.3,00.0,38.6,31.4,28.7,0024.45,0008.33
2021-08-13 10:10:00,,0833.6,4.99,0.00,29.5,28.4,00.0,38.6,31.4,28.7,0025.11,0008.34
2021-08-13 10:11:00,,0833.6,5.01,0.00,29.5,28.5,00.0,38.7,31.5,28.7,0024.94,0008.31
2021-08-13 10:12:00,,0833.6,5.01,0.00,29.5,28.6,00.0,38.7,31.5,28.6,0024.27,0008.24
2021-08-13 10:13:00,,0833.6,4.99,0.00,29.6,28.7,00.0,38.7,31.5,28.6,0023.12,0008.20
2021-08-13 10:14:00,,0833.7,5.01,0.00,29.6,28.8,00.0,38.7,31.6,28.5,0022.73,0008.17
2021-08-13 10:15:00,,0833.7,5.00,0.00,29.6,28.8,00.0,38.7,31.6,28.5,0022.77,0008.12
2021-08-13 10:16:00,,0833.7,5.00,0.00,29.7,28.9,00.0,38.7,31.6,28.3,0022.55,0008.00
2021-08-13 10:17:00,,0833.7,5.00,0.00,29.7,28.9,00.0,38.7,31.7,28.3,0022.81,0007.92
2021-08-13 10:18:00,,0833.7,5.00,0.00,29.8,29.0,00.0,38.8,31.7,28.2,0022.97,0007.94
2021-08-13 10:19:00,,0833.7,5.00,0.00,29.8,29.1,00.0,38.8,31.7,28.1,0024.90,0007.93
2021-08-13 10:20:00,,0833.7,5.00,0.00,29.8,29.1,00.0,38.8,31.8,28.1,0023.19,0007.86
2021-08-13 10:21:00,,0833.7,5.00,0.00,29.8,29.1,00.0,38.8,31.8,28.0,0021.96,0007.81
2021-08-13 10:22:00,,0833.7,5.00,0.00,29.9,29.2,00.0,38.9,31.8,27.9,0023.30,0007.76
2021-08-13 10:23:00,,0833.7,5.00,0.00,29.9,29.2,00.0,38.9,31.8,27.9,0023.93,0007.79
2021-08-13 10:24:00,,0833.7,5.00,0.00,29.9,29.2,00.0,38.9,31.9,27.9,0024.51,0007.83
2021-08-13 10:25:00,,0833.7,4.99,0.00,29.9,29.0,00.0,38.9,31.8,27.8,0025.30,0007.86
2021-08-13 10:26:00,,0833.7,5.00,0.00,29.8,27.2,00.0,38.9,31.4,27.8,0024.82,0007.84
2021-08-13 10:27:00,,0833.6,4.98,0.00,29.6,26.2,00.0,38.9,31.1,28.1,0024.77,0007.96
2021-08-13 10:28:00,,0833.7,5.01,0.00,29.5,26.3,00.0,38.8,31.1,28.3,0023.81,0008.00
2021-08-13 10:29:00,,0833.7,5.01,0.00,29.4,26.7,00.0,38.8,31.2,28.5,0023.84,0007.99
2021-08-13 10:30:00,,0833.7,4.99,0.00,29.4,27.1,00.0,38.7,31.2,28.6,0022.08,0007.94
2021-08-13 10:31:00,,0833.7,5.00,0.00,29.4,27.4,00.0,38.7,31.3,28.6,0023.25,0007.94
2021-08-13 10:32:00,,0833.7,5.00,0.00,29.4,27.7,00.0,38.7,31.3,28.5,0024.12,0008.02
2021-08-13 10:33:00,,0833.7,5.00,0.00,29.4,28.0,00.0,38.7,31.4,28.5,0023.48,0008.04
2021-08-13 10:34:00,,0833.7,5.01,0.00,29.4,28.2,00.0,38.7,31.4,28.4,0022.70,0007.98
2021-08-13 10:35:00,,0833.7,4.99,0.00,29.5,28.3,00.0,38.7,31.4,28.3,0022.75,0007.87
2021-08-13 10:36:00,,0833.7,5.00,0.00,29.5,28.5,00.0,38.7,31.5,28.2,0022.99,0007.85
2021-08-13 10:37:00,,0833.7,5.00,0.00,29.6,28.6,00.0,38.7,31.5,28.2,0023.28,0007.80
2021-08-13 10:38:00,,0833.6,4.99,0.00,29.6,28.7,00.0,38.7,31.6,28.1,0024.86,0007.71
2021-08-13 10:39:00,,0833.6,5.00,0.00,29.6,28.7,00.0,38.7,31.6,28.0,0024.88,0007.69
2021-08-13 10:40:00,,0833.6,5.00,0.00,29.7,28.8,00.0,38.7,31.6,28.0,0024.72,0007.71
2021-08-13 10:41:00,,0833.6,5.02,0.00,29.7,28.9,00.0,38.7,31.7,27.9,0024.50,0007.66
2021-08-13 10:42:00,,0833.6,4.98,0.00,29.8,28.9,00.0,38.8,31.7,27.9,0023.21,0007.63
2021-08-13 10:43:00,,0833.7,5.01,0.00,29.8,29.0,00.0,38.8,31.7,27.8,0023.49,0007.54
2021-08-13 10:44:00,,0833.7,5.00,0.00,29.8,29.0,00.0,38.8,31.8,27.8,0023.61,0007.42
2021-08-13 10:45:00,,0833.6,5.00,0.00,29.9,29.0,00.0,38.8,31.8,27.7,0024.23,0007.43
2021-08-13 10:46:00,,0833.6,5.01,0.00,29.9,29.1,00.0,38.8,31.8,27.6,0024.80,0007.52
2021-08-13 10:47:00,,0833.7,5.00,0.00,29.9,29.1,00.0,38.9,31.9,27.6,0025.69,0007.47
2021-08-13 10:48:00,,0833.7,5.00,0.00,29.9,29.2,00.0,38.9,31.9,27.5,0025.86,0007.47
2021-08-13 10:49:00,,0833.7,5.00,0.00,30.0,29.2,00.0,38.9,31.9,27.5,0024.25,0007.48
2021-08-13 10:50:00,,0833.7,5.00,0.00,30.0,28.4,00.0,38.9,31.6,27.4,0023.72,0007.39
2021-08-13 10:51:00,,0833.7,5.00,0.00,29.8,26.3,00.0,38.9,31.1,27.6,0023.62,0007.32
2021-08-13 10:52:00,,0833.7,4.99,0.00,29.5,25.3,00.0,38.8,30.8,28.0,0023.63,0007.38
2021-08-13 10:53:00,,0833.7,5.00,0.00,29.3,25.4,00.0,38.8,30.8,28.4,0023.99,0007.40
2021-08-13 10:54:00,,0833.7,5.00,0.00,29.1,25.9,00.0,38.7,30.8,28.6,0023.04,0007.52
2021-08-13 10:55:00,,0833.7,5.02,0.00,29.1,26.4,00.0,38.6,30.9,28.8,0023.62,0007.61
2021-08-13 10:56:00,,0833.7,5.00,0.00,29.1,26.8,00.0,38.6,31.0,28.8,0022.87,0007.63
2021-08-13 10:57:00,,0833.7,4.99,0.00,29.1,27.2,00.0,38.5,31.0,28.8,0022.38,0007.59
2021-08-13 10:58:00,,0833.7,5.01,0.00,29.1,27.5,00.0,38.5,31.1,28.8,0021.10,0007.57
2021-08-13 10:59:00,,0833.7,4.99,0.00,29.2,27.7,00.0,38.5,31.1,28.8,0020.54,0007.61
